Location: Amherst
(42.5000°N, 72.5000°W)
Time: 13:49:07
(UTC-04:00)

ISS - Pass Details

Date: 24 May 2018
Orbit: 402 x 407 km, 51.6° (Epoch: 25 May)

Event Time Altitude Azimuth Distance (km) Brightness Sun altitude
Rises 21:26:02 0° 256° (WSW) 2,313 0.5 -11.5°
Reaches altitude 10° 21:28:12 10° 266° (W) 1,455 -0.4 -11.8°
Maximum altitude 21:31:15 36° 335° (NNW) 657 -2.1 -12.2°
Drops below altitude 10° 21:34:19 10° 44° (NE) 1,459 -1.0 -12.6°
Sets 21:36:30 0° 53° (NE) 2,319 -0.1 -12.9°
